contact:dominique.lefevre@mio.osupytheas.fr, maurice.libes@osupytheas.fr, didier.mallarino@osupytheas.fr
Project:EMSO http://www.emso-fr.org/EMSO-France
Depth: 2436.0 m
Title:EMSO Ligure Ouest : Data MII capteur MICROCAT
DateTime_Computer,Latitude,Longitude,Temperature,Conductivity,Pressure,DateTime_Instrument
DateTime_Computer,Latitude,Longitude,degC,S m-1,dbar,DateTime_Instrument
2023-06-23T00:00:49Z,42.805,6.029,13.3036,4.60122,2470.833,2023-6-23T02:03:04Z
2023-06-23T00:03:52Z,42.805,6.029,13.3037,4.60110,2470.871,2023-6-23T02:06:07Z
2023-06-23T00:06:55Z,42.805,6.029,13.3030,4.60108,2470.88,2023-6-23T02:09:10Z
2023-06-23T00:09:58Z,42.805,6.029,13.3045,4.60110,2470.847,2023-6-23T02:12:13Z
2023-06-23T00:13:01Z,42.805,6.029,13.3027,4.60125,2470.871,2023-6-23T02:15:16Z
2023-06-23T00:16:04Z,42.805,6.029,13.3032,4.60112,2470.833,2023-6-23T02:18:19Z
2023-06-23T00:19:07Z,42.805,6.029,13.3026,4.60114,2470.847,2023-6-23T02:21:22Z
2023-06-23T00:22:10Z,42.805,6.029,13.3030,4.60110,2470.833,2023-6-23T02:24:25Z
2023-06-23T00:25:14Z,42.805,6.029,13.3034,4.60114,2470.833,2023-6-23T02:27:28Z
2023-06-23T00:28:17Z,42.805,6.029,13.3034,4.60143,2470.833,2023-6-23T02:30:31Z
2023-06-23T00:31:20Z,42.805,6.029,13.3025,4.60110,2470.833,2023-6-23T02:33:34Z
2023-06-23T00:34:23Z,42.805,6.029,13.3033,4.60101,2470.833,2023-6-23T02:36:38Z
2023-06-23T00:37:26Z,42.805,6.029,13.3028,4.60115,2470.833,2023-6-23T02:39:41Z
2023-06-23T00:40:29Z,42.805,6.029,13.3029,4.60117,2470.81,2023-6-23T02:42:44Z
2023-06-23T00:43:32Z,42.805,6.029,13.3034,4.60112,2470.833,2023-6-23T02:45:47Z
2023-06-23T00:46:35Z,42.805,6.029,13.3039,4.60137,2470.833,2023-6-23T02:48:50Z
2023-06-23T00:49:38Z,42.805,6.029,13.3031,4.60125,2470.847,2023-6-23T02:51:53Z
2023-06-23T00:52:41Z,42.805,6.029,13.3039,4.60131,2470.824,2023-6-23T02:54:56Z
2023-06-23T00:55:44Z,42.805,6.029,13.3033,4.60119,2470.787,2023-6-23T02:57:59Z
2023-06-23T00:58:47Z,42.805,6.029,13.3029,4.60113,2470.81,2023-6-23T03:01:02Z
2023-06-23T01:01:50Z,42.805,6.029,13.3035,4.60098,2470.787,2023-6-23T03:04:05Z
2023-06-23T01:04:54Z,42.805,6.029,13.3031,4.60119,2470.833,2023-6-23T03:07:08Z
2023-06-23T01:07:57Z,42.805,6.029,13.3039,4.60102,2470.81,2023-6-23T03:10:11Z
2023-06-23T01:11:00Z,42.805,6.029,13.3024,4.60116,2470.81,2023-6-23T03:13:15Z
2023-06-23T01:14:03Z,42.805,6.029,13.3033,4.60116,2470.8,2023-6-23T03:16:18Z
2023-06-23T01:17:06Z,42.805,6.029,13.3034,4.60112,2470.787,2023-6-23T03:19:21Z
2023-06-23T01:20:09Z,42.805,6.029,13.3044,4.60104,2470.787,2023-6-23T03:22:24Z
2023-06-23T01:23:12Z,42.805,6.029,13.3033,4.60110,2470.787,2023-6-23T03:25:27Z
2023-06-23T01:26:15Z,42.805,6.029,13.3033,4.60119,2470.8,2023-6-23T03:28:30Z
2023-06-23T01:29:18Z,42.805,6.029,13.3043,4.60115,2470.824,2023-6-23T03:31:33Z
2023-06-23T01:32:21Z,42.805,6.029,13.3043,4.60115,2470.787,2023-6-23T03:34:36Z
2023-06-23T01:35:24Z,42.805,6.029,13.3044,4.60119,2470.8,2023-6-23T03:37:39Z
2023-06-23T01:38:28Z,42.805,6.029,13.3037,4.60140,2470.787,2023-6-23T03:40:42Z
2023-06-23T01:41:31Z,42.805,6.029,13.3042,4.60125,2470.787,2023-6-23T03:43:45Z
2023-06-23T01:44:34Z,42.805,6.029,13.3031,4.60119,2470.81,2023-6-23T03:46:48Z
2023-06-23T01:47:37Z,42.805,6.029,13.3031,4.60115,2470.81,2023-6-23T03:49:52Z
2023-06-23T01:50:40Z,42.805,6.029,13.3036,4.60130,2470.787,2023-6-23T03:52:55Z
2023-06-23T01:53:43Z,42.805,6.029,13.3041,4.60119,2470.81,2023-6-23T03:55:58Z
2023-06-23T01:56:46Z,42.805,6.029,13.3031,4.60104,2470.8,2023-6-23T03:59:01Z
2023-06-23T01:59:49Z,42.805,6.029,13.3036,4.60110,2470.777,2023-6-23T04:02:04Z
2023-06-23T02:02:52Z,42.805,6.029,13.3033,4.60108,2470.8,2023-6-23T04:05:07Z
2023-06-23T02:05:55Z,42.805,6.029,13.3039,4.60108,2470.824,2023-6-23T04:08:10Z
2023-06-23T02:08:58Z,42.805,6.029,13.3029,4.60104,2470.763,2023-6-23T04:11:13Z
2023-06-23T02:12:01Z,42.805,6.029,13.3027,4.60110,2470.777,2023-6-23T04:14:16Z
2023-06-23T02:15:04Z,42.805,6.029,13.3031,4.60104,2470.824,2023-6-23T04:17:19Z
2023-06-23T02:18:08Z,42.805,6.029,13.3033,4.60120,2470.74,2023-6-23T04:20:22Z
2023-06-23T02:21:11Z,42.805,6.029,13.3029,4.60146,2470.8,2023-6-23T04:23:25Z
2023-06-23T02:24:14Z,42.805,6.029,13.3038,4.60114,2470.763,2023-6-23T04:26:29Z
2023-06-23T02:27:17Z,42.805,6.029,13.3029,4.60108,2470.787,2023-6-23T04:29:32Z
2023-06-23T02:30:20Z,42.805,6.029,13.3041,4.60127,2470.81,2023-6-23T04:32:35Z
2023-06-23T02:33:23Z,42.805,6.029,13.3037,4.60117,2470.787,2023-6-23T04:35:38Z
2023-06-23T02:36:26Z,42.805,6.029,13.3035,4.60110,2470.787,2023-6-23T04:38:41Z
2023-06-23T02:39:29Z,42.805,6.029,13.3048,4.60121,2470.777,2023-6-23T04:41:44Z
2023-06-23T02:42:32Z,42.805,6.029,13.3026,4.60119,2470.763,2023-6-23T04:44:47Z
2023-06-23T02:45:35Z,42.805,6.029,13.3030,4.60122,2470.763,2023-6-23T04:47:50Z
2023-06-23T02:48:38Z,42.805,6.029,13.3039,4.60130,2470.777,2023-6-23T04:50:53Z
2023-06-23T02:51:42Z,42.805,6.029,13.3043,4.60121,2470.763,2023-6-23T04:53:56Z
2023-06-23T02:54:45Z,42.805,6.029,13.3036,4.60129,2470.74,2023-6-23T04:56:59Z
2023-06-23T02:57:48Z,42.805,6.029,13.3034,4.60132,2470.754,2023-6-23T05:00:02Z
2023-06-23T03:00:51Z,42.805,6.029,13.3033,4.60127,2470.74,2023-6-23T05:03:05Z
2023-06-23T03:03:54Z,42.805,6.029,13.3040,4.60120,2470.74,2023-6-23T05:06:09Z
2023-06-23T03:06:57Z,42.805,6.029,13.3034,4.60126,2470.777,2023-6-23T05:09:12Z
2023-06-23T03:10:00Z,42.805,6.029,13.3036,4.60129,2470.763,2023-6-23T05:12:15Z
2023-06-23T03:13:03Z,42.805,6.029,13.3047,4.60131,2470.73,2023-6-23T05:15:18Z
2023-06-23T03:16:06Z,42.805,6.029,13.3043,4.60124,2470.74,2023-6-23T05:18:21Z
2023-06-23T03:19:09Z,42.805,6.029,13.3041,4.60135,2470.763,2023-6-23T05:21:24Z
2023-06-23T03:22:12Z,42.805,6.029,13.3036,4.60125,2470.754,2023-6-23T05:24:27Z
2023-06-23T03:25:15Z,42.805,6.029,13.3033,4.60135,2470.777,2023-6-23T05:27:30Z
2023-06-23T03:28:18Z,42.805,6.029,13.3039,4.60147,2470.763,2023-6-23T05:30:33Z
2023-06-23T03:31:22Z,42.805,6.029,13.3035,4.60133,2470.754,2023-6-23T05:33:36Z
2023-06-23T03:34:25Z,42.805,6.029,13.3042,4.60126,2470.74,2023-6-23T05:36:39Z
2023-06-23T03:37:28Z,42.805,6.029,13.3031,4.60132,2470.74,2023-6-23T05:39:42Z
2023-06-23T03:40:31Z,42.805,6.029,13.3039,4.60116,2470.73,2023-6-23T05:42:46Z
2023-06-23T03:43:34Z,42.805,6.029,13.3035,4.60134,2470.763,2023-6-23T05:45:49Z
2023-06-23T03:46:37Z,42.805,6.029,13.3037,4.60129,2470.74,2023-6-23T05:48:52Z
2023-06-23T03:49:40Z,42.805,6.029,13.3039,4.60132,2470.8,2023-6-23T05:51:55Z
2023-06-23T03:52:43Z,42.805,6.029,13.3039,4.60144,2470.73,2023-6-23T05:54:58Z
2023-06-23T03:55:46Z,42.805,6.029,13.3060,4.60145,2470.74,2023-6-23T05:58:01Z
2023-06-23T03:58:49Z,42.805,6.029,13.3039,4.60131,2470.754,2023-6-23T06:01:04Z
2023-06-23T04:01:52Z,42.805,6.029,13.3046,4.60157,2470.763,2023-6-23T06:04:07Z
2023-06-23T04:04:55Z,42.805,6.029,13.3043,4.60138,2470.74,2023-6-23T06:07:10Z
2023-06-23T04:07:59Z,42.805,6.029,13.3032,4.60163,2470.74,2023-6-23T06:10:13Z
2023-06-23T04:11:02Z,42.805,6.029,13.3032,4.60105,2470.73,2023-6-23T06:13:16Z
2023-06-23T04:14:05Z,42.805,6.029,13.3058,4.60132,2470.717,2023-6-23T06:16:19Z
2023-06-23T04:17:08Z,42.805,6.029,13.3034,4.60142,2470.73,2023-6-23T06:19:23Z
2023-06-23T04:20:11Z,42.805,6.029,13.3036,4.60137,2470.73,2023-6-23T06:22:26Z
2023-06-23T04:23:14Z,42.805,6.029,13.3042,4.60140,2470.717,2023-6-23T06:25:29Z
2023-06-23T04:26:17Z,42.805,6.029,13.3036,4.60119,2470.74,2023-6-23T06:28:32Z
2023-06-23T04:29:20Z,42.805,6.029,13.3030,4.60128,2470.717,2023-6-23T06:31:35Z
2023-06-23T04:32:23Z,42.805,6.029,13.3043,4.60135,2470.693,2023-6-23T06:34:38Z
2023-06-23T04:35:26Z,42.805,6.029,13.3038,4.60135,2470.717,2023-6-23T06:37:41Z
2023-06-23T04:38:29Z,42.805,6.029,13.3048,4.60118,2470.717,2023-6-23T06:40:44Z
2023-06-23T04:41:32Z,42.805,6.029,13.3041,4.60162,2470.754,2023-6-23T06:43:47Z
2023-06-23T04:44:35Z,42.805,6.029,13.3052,4.60137,2470.73,2023-6-23T06:46:50Z
2023-06-23T04:47:39Z,42.805,6.029,13.3041,4.60118,2470.74,2023-6-23T06:49:53Z
2023-06-23T04:50:42Z,42.805,6.029,13.3045,4.60146,2470.73,2023-6-23T06:52:56Z
2023-06-23T04:53:45Z,42.805,6.029,13.3043,4.60162,2470.73,2023-6-23T06:56:00Z
2023-06-23T04:56:48Z,42.805,6.029,13.3048,4.60143,2470.717,2023-6-23T06:59:03Z
2023-06-23T04:59:51Z,42.805,6.029,13.3043,4.60144,2470.693,2023-6-23T07:02:06Z
2023-06-23T05:02:54Z,42.805,6.029,13.3039,4.60144,2470.717,2023-6-23T07:05:09Z
2023-06-23T05:05:57Z,42.805,6.029,13.3037,4.60140,2470.717,2023-6-23T07:08:12Z
2023-06-23T05:09:00Z,42.805,6.029,13.3046,4.60142,2470.717,2023-6-23T07:11:15Z
2023-06-23T05:12:03Z,42.805,6.029,13.3038,4.60131,2470.717,2023-6-23T07:14:18Z
2023-06-23T05:15:06Z,42.805,6.029,13.3039,4.60144,2470.73,2023-6-23T07:17:21Z
2023-06-23T05:18:09Z,42.805,6.029,13.3041,4.60137,2470.707,2023-6-23T07:20:24Z
2023-06-23T05:21:12Z,42.805,6.029,13.3034,4.60143,2470.717,2023-6-23T07:23:27Z
2023-06-23T05:24:16Z,42.805,6.029,13.3034,4.60126,2470.707,2023-6-23T07:26:30Z
2023-06-23T05:27:19Z,42.805,6.029,13.3041,4.60146,2470.73,2023-6-23T07:29:33Z
2023-06-23T05:30:22Z,42.805,6.029,13.3036,4.60150,2470.703,2023-6-23T07:32:36Z
2023-06-23T05:33:25Z,42.805,6.029,13.3041,4.60141,2470.74,2023-6-23T07:35:40Z
2023-06-23T05:36:28Z,42.805,6.029,13.3039,4.60144,2470.707,2023-6-23T07:38:43Z
2023-06-23T05:39:31Z,42.805,6.029,13.3042,4.60152,2470.684,2023-6-23T07:41:46Z
2023-06-23T05:42:34Z,42.805,6.029,13.3041,4.60143,2470.73,2023-6-23T07:44:49Z
2023-06-23T05:45:37Z,42.805,6.029,13.3049,4.60135,2470.717,2023-6-23T07:47:52Z
2023-06-23T05:48:40Z,42.805,6.029,13.3040,4.60147,2470.684,2023-6-23T07:50:55Z
2023-06-23T05:51:43Z,42.805,6.029,13.3034,4.60150,2470.67,2023-6-23T07:53:58Z
2023-06-23T05:54:46Z,42.805,6.029,13.3043,4.60150,2470.73,2023-6-23T07:57:01Z
2023-06-23T05:57:49Z,42.805,6.029,13.3043,4.60140,2470.693,2023-6-23T08:00:04Z
2023-06-23T06:00:52Z,42.805,6.029,13.3051,4.60137,2470.717,2023-6-23T08:03:07Z
2023-06-23T06:03:56Z,42.805,6.029,13.3041,4.60148,2470.707,2023-6-23T08:06:10Z
2023-06-23T06:06:59Z,42.805,6.029,13.3054,4.60155,2470.717,2023-6-23T08:09:13Z
2023-06-23T06:10:02Z,42.805,6.029,13.3039,4.60127,2470.73,2023-6-23T08:12:17Z
2023-06-23T06:13:05Z,42.805,6.029,13.3041,4.60144,2470.717,2023-6-23T08:15:20Z
2023-06-23T06:16:08Z,42.805,6.029,13.3036,4.60137,2470.74,2023-6-23T08:18:23Z
2023-06-23T06:19:11Z,42.805,6.029,13.3040,4.60130,2470.73,2023-6-23T08:21:26Z
2023-06-23T06:22:14Z,42.805,6.029,13.3040,4.60141,2470.693,2023-6-23T08:24:29Z
2023-06-23T06:25:17Z,42.805,6.029,13.3037,4.60132,2470.693,2023-6-23T08:27:32Z
2023-06-23T06:28:20Z,42.805,6.029,13.3045,4.60122,2470.74,2023-6-23T08:30:35Z
2023-06-23T06:31:22Z,42.805,6.029,13.3033,4.60153,2470.693,2023-6-23T08:33:37Z
2023-06-23T06:34:25Z,42.805,6.029,13.3031,4.60162,2470.717,2023-6-23T08:36:40Z
2023-06-23T06:37:29Z,42.805,6.029,13.3036,4.60187,2470.73,2023-6-23T08:39:43Z
2023-06-23T06:40:32Z,42.805,6.029,13.3041,4.60139,2470.73,2023-6-23T08:42:46Z
2023-06-23T06:43:35Z,42.805,6.029,13.3048,4.60130,2470.717,2023-6-23T08:45:49Z
2023-06-23T06:46:38Z,42.805,6.029,13.3052,4.60140,2470.74,2023-6-23T08:48:53Z
2023-06-23T06:49:41Z,42.805,6.029,13.3038,4.60152,2470.74,2023-6-23T08:51:56Z
2023-06-23T06:52:44Z,42.805,6.029,13.3046,4.60146,2470.717,2023-6-23T08:54:59Z
2023-06-23T06:55:47Z,42.805,6.029,13.3042,4.60159,2470.717,2023-6-23T08:58:02Z
2023-06-23T06:58:50Z,42.805,6.029,13.3036,4.60156,2470.754,2023-6-23T09:01:05Z
2023-06-23T07:01:53Z,42.805,6.029,13.3050,4.60139,2470.717,2023-6-23T09:04:08Z
2023-06-23T07:04:56Z,42.805,6.029,13.3043,4.60160,2470.73,2023-6-23T09:07:11Z
2023-06-23T07:07:59Z,42.805,6.029,13.3043,4.60137,2470.74,2023-6-23T09:10:14Z
2023-06-23T07:11:02Z,42.805,6.029,13.3042,4.60152,2470.717,2023-6-23T09:13:17Z
2023-06-23T07:14:05Z,42.805,6.029,13.3045,4.60135,2470.717,2023-6-23T09:16:20Z
2023-06-23T07:17:09Z,42.805,6.029,13.3063,4.60150,2470.74,2023-6-23T09:19:23Z
2023-06-23T07:20:12Z,42.805,6.029,13.3045,4.60152,2470.717,2023-6-23T09:22:26Z
2023-06-23T07:23:15Z,42.805,6.029,13.3047,4.60144,2470.73,2023-6-23T09:25:30Z
2023-06-23T07:26:18Z,42.805,6.029,13.3066,4.60137,2470.754,2023-6-23T09:28:33Z
2023-06-23T07:29:21Z,42.805,6.029,13.3040,4.60142,2470.73,2023-6-23T09:31:36Z
2023-06-23T07:32:24Z,42.805,6.029,13.3056,4.60157,2470.717,2023-6-23T09:34:39Z
2023-06-23T07:35:27Z,42.805,6.029,13.3034,4.60155,2470.717,2023-6-23T09:37:42Z
2023-06-23T07:38:30Z,42.805,6.029,13.3043,4.60135,2470.787,2023-6-23T09:40:45Z
2023-06-23T07:41:33Z,42.805,6.029,13.3046,4.60148,2470.74,2023-6-23T09:43:48Z
2023-06-23T07:44:36Z,42.805,6.029,13.3048,4.60167,2470.679,2023-6-23T09:46:51Z
2023-06-23T07:47:39Z,42.805,6.029,13.3039,4.60152,2470.707,2023-6-23T09:49:54Z
2023-06-23T07:50:42Z,42.805,6.029,13.3056,4.60141,2470.74,2023-6-23T09:52:57Z
2023-06-23T07:53:46Z,42.805,6.029,13.3049,4.60175,2470.717,2023-6-23T09:56:00Z
2023-06-23T07:56:49Z,42.805,6.029,13.3040,4.60149,2470.74,2023-6-23T09:59:03Z
2023-06-23T07:59:52Z,42.805,6.029,13.3048,4.60160,2470.754,2023-6-23T10:02:06Z
2023-06-23T08:02:55Z,42.805,6.029,13.3052,4.60172,2470.717,2023-6-23T10:05:10Z
2023-06-23T08:05:58Z,42.805,6.029,13.3056,4.60164,2470.73,2023-6-23T10:08:13Z
2023-06-23T08:09:01Z,42.805,6.029,13.3058,4.60149,2470.754,2023-6-23T10:11:16Z
2023-06-23T08:12:04Z,42.805,6.029,13.3048,4.60167,2470.763,2023-6-23T10:14:19Z
2023-06-23T08:15:07Z,42.805,6.029,13.3051,4.60156,2470.754,2023-6-23T10:17:22Z
2023-06-23T08:18:10Z,42.805,6.029,13.3055,4.60152,2470.717,2023-6-23T10:20:25Z
2023-06-23T08:21:13Z,42.805,6.029,13.3058,4.60140,2470.8,2023-6-23T10:23:28Z
2023-06-23T08:24:16Z,42.805,6.029,13.3047,4.60147,2470.777,2023-6-23T10:26:31Z
2023-06-23T08:27:19Z,42.805,6.029,13.3051,4.60164,2470.74,2023-6-23T10:29:34Z
2023-06-23T08:30:21Z,42.805,6.029,13.3048,4.60146,2470.717,2023-6-23T10:32:36Z
2023-06-23T08:33:24Z,42.805,6.029,13.3039,4.60146,2470.754,2023-6-23T10:35:39Z
2023-06-23T08:36:27Z,42.805,6.029,13.3037,4.60156,2470.74,2023-6-23T10:38:42Z
2023-06-23T08:39:30Z,42.805,6.029,13.3048,4.60150,2470.777,2023-6-23T10:41:45Z
2023-06-23T08:42:33Z,42.805,6.029,13.3039,4.60141,2470.8,2023-6-23T10:44:48Z
2023-06-23T08:45:36Z,42.805,6.029,13.3056,4.60119,2470.754,2023-6-23T10:47:51Z
2023-06-23T08:48:39Z,42.805,6.029,13.3042,4.60160,2470.763,2023-6-23T10:50:54Z
2023-06-23T08:51:43Z,42.805,6.029,13.3043,4.60161,2470.74,2023-6-23T10:53:57Z
2023-06-23T08:54:46Z,42.805,6.029,13.3036,4.60160,2470.74,2023-6-23T10:57:00Z
2023-06-23T08:57:49Z,42.805,6.029,13.3052,4.60150,2470.763,2023-6-23T11:00:04Z
2023-06-23T09:00:52Z,42.805,6.029,13.3048,4.60168,2470.763,2023-6-23T11:03:07Z
2023-06-23T09:03:55Z,42.805,6.029,13.3045,4.60145,2470.777,2023-6-23T11:06:10Z
2023-06-23T09:06:58Z,42.805,6.029,13.3046,4.60119,2470.763,2023-6-23T11:09:13Z
2023-06-23T09:10:01Z,42.805,6.029,13.3038,4.60152,2470.777,2023-6-23T11:12:16Z
2023-06-23T09:13:04Z,42.805,6.029,13.3056,4.60173,2470.777,2023-6-23T11:15:19Z
2023-06-23T09:16:07Z,42.805,6.029,13.3058,4.60156,2470.777,2023-6-23T11:18:22Z
2023-06-23T09:19:10Z,42.805,6.029,13.3056,4.60164,2470.777,2023-6-23T11:21:25Z
2023-06-23T09:22:13Z,42.805,6.029,13.3054,4.60150,2470.763,2023-6-23T11:24:28Z
2023-06-23T09:25:17Z,42.805,6.029,13.3051,4.60160,2470.777,2023-6-23T11:27:31Z
2023-06-23T09:28:20Z,42.805,6.029,13.3048,4.60156,2470.754,2023-6-23T11:30:34Z
2023-06-23T09:31:23Z,42.805,6.029,13.3038,4.60149,2470.777,2023-6-23T11:33:38Z
2023-06-23T09:34:26Z,42.805,6.029,13.3044,4.60156,2470.763,2023-6-23T11:36:41Z
2023-06-23T09:37:29Z,42.805,6.029,13.3048,4.60149,2470.754,2023-6-23T11:39:44Z
2023-06-23T09:40:32Z,42.805,6.029,13.3045,4.60173,2470.763,2023-6-23T11:42:47Z
2023-06-23T09:43:35Z,42.805,6.029,13.3051,4.60144,2470.74,2023-6-23T11:45:50Z
2023-06-23T09:46:38Z,42.805,6.029,13.3062,4.60142,2470.754,2023-6-23T11:48:53Z
2023-06-23T09:49:41Z,42.805,6.029,13.3039,4.60160,2470.777,2023-6-23T11:51:56Z
2023-06-23T09:52:44Z,42.805,6.029,13.3054,4.60144,2470.754,2023-6-23T11:54:59Z
2023-06-23T09:55:47Z,42.805,6.029,13.3050,4.60165,2470.763,2023-6-23T11:58:02Z
2023-06-23T09:58:50Z,42.805,6.029,13.3043,4.60180,2470.763,2023-6-23T12:01:05Z
2023-06-23T10:01:54Z,42.805,6.029,13.3055,4.60167,2470.8,2023-6-23T12:04:08Z
2023-06-23T10:04:57Z,42.805,6.029,13.3048,4.60162,2470.777,2023-6-23T12:07:11Z
2023-06-23T10:08:00Z,42.805,6.029,13.3044,4.60148,2470.787,2023-6-23T12:10:15Z
2023-06-23T10:11:03Z,42.805,6.029,13.3069,4.60188,2470.74,2023-6-23T12:13:18Z
2023-06-23T10:14:06Z,42.805,6.029,13.3043,4.60176,2470.74,2023-6-23T12:16:21Z
2023-06-23T10:17:09Z,42.805,6.029,13.3051,4.60189,2470.74,2023-6-23T12:19:24Z
2023-06-23T10:20:12Z,42.805,6.029,13.3050,4.60162,2470.74,2023-6-23T12:22:27Z
2023-06-23T10:23:15Z,42.805,6.029,13.3055,4.60164,2470.777,2023-6-23T12:25:30Z
2023-06-23T10:26:18Z,42.805,6.029,13.3051,4.60157,2470.763,2023-6-23T12:28:33Z
2023-06-23T10:29:21Z,42.805,6.029,13.3043,4.60154,2470.763,2023-6-23T12:31:36Z
2023-06-23T10:32:24Z,42.805,6.029,13.3051,4.60164,2470.763,2023-6-23T12:34:39Z
2023-06-23T10:35:28Z,42.805,6.029,13.3041,4.60134,2470.763,2023-6-23T12:37:42Z
2023-06-23T10:38:31Z,42.805,6.029,13.3051,4.60155,2470.763,2023-6-23T12:40:45Z
2023-06-23T10:41:34Z,42.805,6.029,13.3041,4.60149,2470.763,2023-6-23T12:43:49Z
2023-06-23T10:44:37Z,42.805,6.029,13.3043,4.60157,2470.8,2023-6-23T12:46:52Z
2023-06-23T10:47:40Z,42.805,6.029,13.3051,4.60183,2470.777,2023-6-23T12:49:55Z
2023-06-23T10:50:43Z,42.805,6.029,13.3047,4.60149,2470.73,2023-6-23T12:52:58Z
2023-06-23T10:53:46Z,42.805,6.029,13.3058,4.60182,2470.754,2023-6-23T12:56:01Z
2023-06-23T10:56:49Z,42.805,6.029,13.3048,4.60195,2470.763,2023-6-23T12:59:04Z
2023-06-23T10:59:52Z,42.805,6.029,13.3055,4.60157,2470.717,2023-6-23T13:02:07Z
2023-06-23T11:02:55Z,42.805,6.029,13.3049,4.60167,2470.74,2023-6-23T13:05:10Z
2023-06-23T11:05:58Z,42.805,6.029,13.3113,4.60160,2470.693,2023-6-23T13:08:13Z
2023-06-23T11:09:01Z,42.805,6.029,13.3056,4.60194,2470.763,2023-6-23T13:11:16Z
2023-06-23T11:12:05Z,42.805,6.029,13.3050,4.60156,2470.754,2023-6-23T13:14:19Z
2023-06-23T11:15:08Z,42.805,6.029,13.3067,4.60191,2470.74,2023-6-23T13:17:22Z
2023-06-23T11:18:11Z,42.805,6.029,13.3056,4.60167,2470.74,2023-6-23T13:20:26Z
2023-06-23T11:21:14Z,42.805,6.029,13.3060,4.60180,2470.74,2023-6-23T13:23:29Z
2023-06-23T11:24:17Z,42.805,6.029,13.3051,4.60133,2470.73,2023-6-23T13:26:32Z
2023-06-23T11:27:20Z,42.805,6.029,13.3057,4.60153,2470.74,2023-6-23T13:29:35Z
2023-06-23T11:30:23Z,42.805,6.029,13.3054,4.60160,2470.717,2023-6-23T13:32:38Z
2023-06-23T11:33:26Z,42.805,6.029,13.3070,4.60129,2470.763,2023-6-23T13:35:41Z
2023-06-23T11:36:29Z,42.805,6.029,13.3063,4.60170,2470.754,2023-6-23T13:38:44Z
2023-06-23T11:39:32Z,42.805,6.029,13.3058,4.60172,2470.763,2023-6-23T13:41:47Z
2023-06-23T11:42:35Z,42.805,6.029,13.3060,4.60140,2470.754,2023-6-23T13:44:50Z
2023-06-23T11:45:39Z,42.805,6.029,13.3057,4.60146,2470.74,2023-6-23T13:47:53Z
2023-06-23T11:48:42Z,42.805,6.029,13.3061,4.60145,2470.754,2023-6-23T13:50:56Z
2023-06-23T11:51:45Z,42.805,6.029,13.3057,4.60159,2470.717,2023-6-23T13:54:00Z
2023-06-23T11:54:48Z,42.805,6.029,13.3036,4.60163,2470.707,2023-6-23T13:57:03Z
2023-06-23T11:57:51Z,42.805,6.029,13.3053,4.60154,2470.73,2023-6-23T14:00:06Z
2023-06-23T12:00:54Z,42.805,6.029,13.3052,4.60188,2470.717,2023-6-23T14:03:09Z
2023-06-23T12:03:57Z,42.805,6.029,13.3052,4.60155,2470.74,2023-6-23T14:06:12Z
2023-06-23T12:07:00Z,42.805,6.029,13.3038,4.60184,2470.73,2023-6-23T14:09:15Z
2023-06-23T12:10:03Z,42.805,6.029,13.3046,4.60178,2470.693,2023-6-23T14:12:18Z
2023-06-23T12:13:06Z,42.805,6.029,13.3048,4.60159,2470.707,2023-6-23T14:15:21Z
2023-06-23T12:16:09Z,42.805,6.029,13.3051,4.60138,2470.717,2023-6-23T14:18:24Z
2023-06-23T12:19:12Z,42.805,6.029,13.3065,4.60156,2470.74,2023-6-23T14:21:27Z
2023-06-23T12:22:16Z,42.805,6.029,13.3087,4.60157,2470.717,2023-6-23T14:24:30Z
2023-06-23T12:25:19Z,42.805,6.029,13.3068,4.60191,2470.74,2023-6-23T14:27:33Z
2023-06-23T12:28:22Z,42.805,6.029,13.3059,4.60157,2470.693,2023-6-23T14:30:37Z
2023-06-23T12:31:24Z,42.805,6.029,13.3067,4.60165,2470.73,2023-6-23T14:33:38Z
2023-06-23T12:34:27Z,42.805,6.029,13.3056,4.60157,2470.717,2023-6-23T14:36:42Z
2023-06-23T12:37:30Z,42.805,6.029,13.3062,4.60147,2470.693,2023-6-23T14:39:45Z
2023-06-23T12:40:33Z,42.805,6.029,13.3048,4.60144,2470.717,2023-6-23T14:42:48Z
2023-06-23T12:43:36Z,42.805,6.029,13.3048,4.60141,2470.707,2023-6-23T14:45:51Z
2023-06-23T12:46:39Z,42.805,6.029,13.3056,4.60190,2470.67,2023-6-23T14:48:54Z
2023-06-23T12:49:42Z,42.805,6.029,13.3062,4.60165,2470.67,2023-6-23T14:51:57Z
2023-06-23T12:52:45Z,42.805,6.029,13.3063,4.60184,2470.693,2023-6-23T14:55:00Z
2023-06-23T12:55:48Z,42.805,6.029,13.3055,4.60149,2470.684,2023-6-23T14:58:03Z
2023-06-23T12:58:51Z,42.805,6.029,13.3056,4.60180,2470.693,2023-6-23T15:01:06Z
2023-06-23T13:01:54Z,42.805,6.029,13.3058,4.60178,2470.684,2023-6-23T15:04:09Z
2023-06-23T13:04:58Z,42.805,6.029,13.3065,4.60188,2470.67,2023-6-23T15:07:12Z
2023-06-23T13:08:01Z,42.805,6.029,13.3070,4.60178,2470.707,2023-6-23T15:10:15Z
2023-06-23T13:11:04Z,42.805,6.029,13.3070,4.60152,2470.67,2023-6-23T15:13:19Z
2023-06-23T13:14:07Z,42.805,6.029,13.3054,4.60153,2470.693,2023-6-23T15:16:22Z
2023-06-23T13:17:10Z,42.805,6.029,13.3053,4.60156,2470.693,2023-6-23T15:19:25Z
2023-06-23T13:20:13Z,42.805,6.029,13.3048,4.60166,2470.73,2023-6-23T15:22:28Z
2023-06-23T13:23:16Z,42.805,6.029,13.3040,4.60172,2470.684,2023-6-23T15:25:31Z
2023-06-23T13:26:19Z,42.805,6.029,13.3054,4.60160,2470.693,2023-6-23T15:28:34Z
2023-06-23T13:29:22Z,42.805,6.029,13.3041,4.60141,2470.693,2023-6-23T15:31:37Z
2023-06-23T13:32:25Z,42.805,6.029,13.3052,4.60117,2470.707,2023-6-23T15:34:40Z
2023-06-23T13:35:28Z,42.805,6.029,13.3036,4.60139,2470.67,2023-6-23T15:37:43Z
2023-06-23T13:38:32Z,42.805,6.029,13.3048,4.60158,2470.661,2023-6-23T15:40:46Z
2023-06-23T13:41:35Z,42.805,6.029,13.3051,4.60152,2470.693,2023-6-23T15:43:49Z
2023-06-23T13:44:38Z,42.805,6.029,13.3043,4.60142,2470.684,2023-6-23T15:46:53Z
2023-06-23T13:47:41Z,42.805,6.029,13.3040,4.60138,2470.67,2023-6-23T15:49:56Z
2023-06-23T13:50:44Z,42.805,6.029,13.3043,4.60149,2470.624,2023-6-23T15:52:59Z
2023-06-23T13:53:47Z,42.805,6.029,13.3041,4.60163,2470.684,2023-6-23T15:56:02Z
2023-06-23T13:56:50Z,42.805,6.029,13.3051,4.60152,2470.67,2023-6-23T15:59:05Z
2023-06-23T13:59:53Z,42.805,6.029,13.3037,4.60165,2470.661,2023-6-23T16:02:08Z
2023-06-23T14:02:56Z,42.805,6.029,13.3051,4.60127,2470.67,2023-6-23T16:05:11Z
2023-06-23T14:05:59Z,42.805,6.029,13.3062,4.60163,2470.661,2023-6-23T16:08:14Z
2023-06-23T14:09:02Z,42.805,6.029,13.3056,4.60152,2470.646,2023-6-23T16:11:17Z
2023-06-23T14:12:05Z,42.805,6.029,13.3050,4.60117,2470.67,2023-6-23T16:14:20Z
2023-06-23T14:15:09Z,42.805,6.029,13.3048,4.60161,2470.67,2023-6-23T16:17:23Z
2023-06-23T14:18:12Z,42.805,6.029,13.3069,4.60181,2470.684,2023-6-23T16:20:26Z
2023-06-23T14:21:15Z,42.805,6.029,13.3066,4.60148,2470.684,2023-6-23T16:23:30Z
2023-06-23T14:24:18Z,42.805,6.029,13.3044,4.60155,2470.646,2023-6-23T16:26:33Z
2023-06-23T14:27:21Z,42.805,6.029,13.3058,4.60132,2470.646,2023-6-23T16:29:36Z
2023-06-23T14:30:22Z,42.805,6.029,13.3054,4.60150,2470.646,2023-6-23T16:32:37Z
2023-06-23T14:33:25Z,42.805,6.029,13.3062,4.60150,2470.646,2023-6-23T16:35:40Z
2023-06-23T14:36:28Z,42.805,6.029,13.3043,4.60118,2470.646,2023-6-23T16:38:43Z
2023-06-23T14:39:32Z,42.805,6.029,13.3043,4.60160,2470.684,2023-6-23T16:41:46Z
2023-06-23T14:42:35Z,42.805,6.029,13.3046,4.60150,2470.684,2023-6-23T16:44:49Z
2023-06-23T14:45:38Z,42.805,6.029,13.3043,4.60129,2470.661,2023-6-23T16:47:53Z
2023-06-23T14:48:41Z,42.805,6.029,13.3050,4.60150,2470.684,2023-6-23T16:50:56Z
2023-06-23T14:51:44Z,42.805,6.029,13.3058,4.60131,2470.661,2023-6-23T16:53:59Z
2023-06-23T14:54:47Z,42.805,6.029,13.3052,4.60145,2470.67,2023-6-23T16:57:02Z
2023-06-23T14:57:50Z,42.805,6.029,13.3053,4.60150,2470.646,2023-6-23T17:00:05Z
2023-06-23T15:00:53Z,42.805,6.029,13.3042,4.60151,2470.646,2023-6-23T17:03:08Z
2023-06-23T15:03:56Z,42.805,6.029,13.3048,4.60135,2470.646,2023-6-23T17:06:11Z
2023-06-23T15:06:59Z,42.805,6.029,13.3036,4.60150,2470.637,2023-6-23T17:09:14Z
2023-06-23T15:10:02Z,42.805,6.029,13.3042,4.60164,2470.646,2023-6-23T17:12:17Z
2023-06-23T15:13:05Z,42.805,6.029,13.3039,4.60144,2470.661,2023-6-23T17:15:20Z